Спорное

Россия / Магаданская область     62°20′33″N   151°06′18″E
темп.,
°C
ветер,
м/с
пор.,
м/с
влажн.,
%
обл.,
%
осадки,
мм/ч
давл.,
гПа
погр.,
м
22 октября, пт
пт2223:00−28ю22855 0.0 101810
02:00−28ю22865 0.0 101710
05:00−28ю22855 0.0 101611
08:00−27ю22845 0.0 101511
11:00−22ююз11775 0.0 101373
14:00−19юз11755 0.0 100985
17:00−23ююв228218 0.0 100910
20:00−24ю228323 0.0 101012
23 октября, сб
сб2323:00−24ю218567 0.0 10109
02:00−25ю118891 0.0 10119
05:00−22всв0088100 0.0 101034
08:00−21юз0090100 0.0 101126
11:00−19ссз008648 0.0 101289
14:00−18с118458 0.0 1012131
17:00−21в009383 0.0 10139
20:00−23ююв119549 0.0 10159
24 октября, вс
вс2423:00−24ю119859 0.0 10169
02:00−24ююз119961 0.0 10179
05:00−26ю219959 0.0 10189
08:00−26ю229954 0.0 10199
11:00−22ююз119444 0.0 101867
14:00−19юз11883 0.0 101675
17:00−22ю32865 0.0 101613
20:00−22ю338237 0.0 101518
25 октября, пн
пн2523:00−21ю338499 0.0 101322
02:00−19ю3386100 0.0 101041
05:00−16ю3483100 0.0 100857
08:00−15ююз338390 0.0 100637
11:00−12ююз2378100 0.0 1005117
14:00−10зюз117784 0.0 100495
17:00−15сз1188100 0.0 10069
20:00−16з119391 0.0 10089
26 октября, вт
вт2623:00−17юз119686 0.0 10109
02:00−20ю229919 0.0 10119
05:00−21ю229720 0.0 101310
08:00−21ю22947 0.0 101410
11:00−17ююз11875 0.0 101434
14:00−15юз118560 0.0 101329
17:00−19ю22908 0.0 101510
20:00−20ю22925 0.0 101710